Year,Month,Day,Hour,Minute,Value (Times are PST for temperature in C)
2019,11,24,00,00,10.30
2019,11,24,00,01,10.30
2019,11,24,00,02,10.30
2019,11,24,00,03,10.20
2019,11,24,00,04,10.20
2019,11,24,00,05,10.20
2019,11,24,00,06,10.10
2019,11,24,00,07,10.10
2019,11,24,00,08,10.10
2019,11,24,00,09,10.10
2019,11,24,00,10,10.10
2019,11,24,00,11,10.10
2019,11,24,00,12,10.00
2019,11,24,00,13,10.00
2019,11,24,00,14,10.00
2019,11,24,00,15,9.90
2019,11,24,00,16,9.90
2019,11,24,00,17,9.90
2019,11,24,00,18,9.90
2019,11,24,00,19,9.90
2019,11,24,00,20,9.90
2019,11,24,00,21,9.90
2019,11,24,00,22,9.80
2019,11,24,00,23,9.80
2019,11,24,00,24,9.80
2019,11,24,00,25,9.80
2019,11,24,00,26,9.80
2019,11,24,00,27,9.80
2019,11,24,00,28,9.80
2019,11,24,00,29,9.80
2019,11,24,00,30,9.70
2019,11,24,00,31,9.70
2019,11,24,00,32,9.70
2019,11,24,00,33,9.70
2019,11,24,00,34,9.70
2019,11,24,00,35,9.70
2019,11,24,00,36,9.70
2019,11,24,00,37,9.70
2019,11,24,00,38,9.70
2019,11,24,00,39,9.70
2019,11,24,00,40,9.70
2019,11,24,00,41,9.70
2019,11,24,00,42,9.60
2019,11,24,00,43,9.60
2019,11,24,00,44,9.60
2019,11,24,00,45,9.60
2019,11,24,00,46,9.60
2019,11,24,00,47,9.60
2019,11,24,00,48,9.60
2019,11,24,00,49,9.60
2019,11,24,00,50,9.60
2019,11,24,00,51,9.60
2019,11,24,00,52,9.60
2019,11,24,00,53,9.50
2019,11,24,00,54,9.50
2019,11,24,00,55,9.50
2019,11,24,00,56,9.50
2019,11,24,00,57,9.50
2019,11,24,00,58,9.50
2019,11,24,00,59,9.50
2019,11,24,01,00,9.50
2019,11,24,01,01,9.40
2019,11,24,01,02,9.40
2019,11,24,01,03,9.40
2019,11,24,01,04,9.30
2019,11,24,01,05,9.30
2019,11,24,01,06,9.20
2019,11,24,01,07,9.20
2019,11,24,01,08,9.20
2019,11,24,01,09,9.20
2019,11,24,01,10,9.10
2019,11,24,01,11,9.10
2019,11,24,01,12,9.10
2019,11,24,01,13,9.00
2019,11,24,01,14,9.00
2019,11,24,01,15,8.90
2019,11,24,01,16,8.90
2019,11,24,01,17,8.90
2019,11,24,01,18,8.90
2019,11,24,01,19,8.90
2019,11,24,01,20,8.90
2019,11,24,01,21,8.90
2019,11,24,01,22,8.90
2019,11,24,01,23,8.90
2019,11,24,01,24,9.00
2019,11,24,01,25,9.00
2019,11,24,01,26,9.00
2019,11,24,01,27,9.10
2019,11,24,01,28,9.20
2019,11,24,01,29,9.20
2019,11,24,01,30,9.30
2019,11,24,01,31,9.30
2019,11,24,01,32,9.30
2019,11,24,01,33,9.30
2019,11,24,01,34,9.30
2019,11,24,01,35,9.30
2019,11,24,01,36,9.30
2019,11,24,01,37,9.30
2019,11,24,01,38,9.30
2019,11,24,01,39,9.30
2019,11,24,01,40,9.20
2019,11,24,01,41,9.20
2019,11,24,01,42,9.20
2019,11,24,01,43,9.30
2019,11,24,01,44,9.30
2019,11,24,01,45,9.30
2019,11,24,01,46,9.40
2019,11,24,01,47,9.40
2019,11,24,01,48,9.50
2019,11,24,01,49,9.50
2019,11,24,01,50,9.50
2019,11,24,01,51,9.60
2019,11,24,01,52,9.60
2019,11,24,01,53,9.70
2019,11,24,01,54,9.80
2019,11,24,01,55,9.80
2019,11,24,01,56,9.80
2019,11,24,01,57,9.80
2019,11,24,01,58,9.80
2019,11,24,01,59,9.80
2019,11,24,02,00,9.80
2019,11,24,02,01,9.80
2019,11,24,02,02,9.80
2019,11,24,02,03,9.80
2019,11,24,02,04,9.70
2019,11,24,02,05,9.70
2019,11,24,02,06,9.70
2019,11,24,02,07,9.60
2019,11,24,02,08,9.60
2019,11,24,02,09,9.50
2019,11,24,02,10,9.50
2019,11,24,02,11,9.50
2019,11,24,02,12,9.50
2019,11,24,02,13,9.40
2019,11,24,02,14,9.40
2019,11,24,02,15,9.30
2019,11,24,02,16,9.30
2019,11,24,02,17,9.30
2019,11,24,02,18,9.20
2019,11,24,02,19,9.10
2019,11,24,02,20,9.10
2019,11,24,02,21,9.10
2019,11,24,02,22,9.00
2019,11,24,02,23,9.00
2019,11,24,02,24,8.90
2019,11,24,02,25,8.90
2019,11,24,02,26,8.90
2019,11,24,02,27,8.80
2019,11,24,02,28,8.80
2019,11,24,02,29,8.80
2019,11,24,02,30,8.80
2019,11,24,02,31,8.80
2019,11,24,02,32,8.80
2019,11,24,02,33,8.80
2019,11,24,02,34,8.80
2019,11,24,02,35,8.80
2019,11,24,02,36,8.80
2019,11,24,02,37,8.80
2019,11,24,02,38,8.70
2019,11,24,02,39,8.70
2019,11,24,02,40,8.70
2019,11,24,02,41,8.70
2019,11,24,02,42,8.70
2019,11,24,02,43,8.70
2019,11,24,02,44,8.70
2019,11,24,02,45,8.70
2019,11,24,02,46,8.70
2019,11,24,02,47,8.70
2019,11,24,02,48,8.70
2019,11,24,02,49,8.60
2019,11,24,02,50,8.70
2019,11,24,02,51,8.70
2019,11,24,02,52,8.70
2019,11,24,02,53,8.70
2019,11,24,02,54,8.70
2019,11,24,02,55,8.70
2019,11,24,02,56,8.70
2019,11,24,02,57,8.70
2019,11,24,02,58,8.70
2019,11,24,02,59,8.60
2019,11,24,03,00,8.60
2019,11,24,03,01,8.50
2019,11,24,03,02,8.50
2019,11,24,03,03,8.40
2019,11,24,03,04,8.30
2019,11,24,03,05,8.30
2019,11,24,03,06,8.30
2019,11,24,03,07,8.20
2019,11,24,03,08,8.20
2019,11,24,03,09,8.20
2019,11,24,03,10,8.10
2019,11,24,03,11,8.10
2019,11,24,03,12,8.10
2019,11,24,03,13,8.00
2019,11,24,03,14,8.00
2019,11,24,03,15,8.00
2019,11,24,03,16,7.90
2019,11,24,03,17,7.90
2019,11,24,03,18,7.80
2019,11,24,03,19,7.70
2019,11,24,03,20,7.70
2019,11,24,03,21,7.70
2019,11,24,03,22,7.70
2019,11,24,03,23,7.60
2019,11,24,03,24,7.60
2019,11,24,03,25,7.50
2019,11,24,03,26,7.40
2019,11,24,03,27,7.40
2019,11,24,03,28,7.40
2019,11,24,03,29,7.30
2019,11,24,03,30,7.30
2019,11,24,03,31,7.20
2019,11,24,03,32,7.20
2019,11,24,03,33,7.20
2019,11,24,03,34,7.10
2019,11,24,03,35,7.10
2019,11,24,03,36,7.00
2019,11,24,03,37,7.00
2019,11,24,03,38,6.90
2019,11,24,03,39,6.90
2019,11,24,03,40,6.80
2019,11,24,03,41,6.80
2019,11,24,03,42,6.70
2019,11,24,03,43,6.60
2019,11,24,03,44,6.60
2019,11,24,03,45,6.50
2019,11,24,03,46,6.40
2019,11,24,03,47,6.40
2019,11,24,03,48,6.30
2019,11,24,03,49,6.30
2019,11,24,03,50,6.30
2019,11,24,03,51,6.20
2019,11,24,03,52,6.20
2019,11,24,03,53,6.20
2019,11,24,03,54,6.20
2019,11,24,03,55,6.20
2019,11,24,03,56,6.20
2019,11,24,03,57,6.20
2019,11,24,03,58,6.20
2019,11,24,03,59,6.20
2019,11,24,04,00,6.20
2019,11,24,04,01,6.20
2019,11,24,04,02,6.20
2019,11,24,04,03,6.20
2019,11,24,04,04,6.10
2019,11,24,04,05,6.10
2019,11,24,04,06,6.10
2019,11,24,04,07,6.10
2019,11,24,04,08,6.10
2019,11,24,04,09,6.10
2019,11,24,04,10,6.10
2019,11,24,04,11,6.10
2019,11,24,04,12,6.10
2019,11,24,04,13,6.10
2019,11,24,04,14,6.20
2019,11,24,04,15,6.20
2019,11,24,04,16,6.20
2019,11,24,04,17,6.30
2019,11,24,04,18,6.30
2019,11,24,04,19,6.30
2019,11,24,04,20,6.40
2019,11,24,04,21,6.40
2019,11,24,04,22,6.40
2019,11,24,04,23,6.40
2019,11,24,04,24,6.40
2019,11,24,04,25,6.40
2019,11,24,04,26,6.40
2019,11,24,04,27,6.30
2019,11,24,04,28,6.30
2019,11,24,04,29,6.30
2019,11,24,04,30,6.30
2019,11,24,04,31,6.30
2019,11,24,04,32,6.30
2019,11,24,04,33,6.30
2019,11,24,04,34,6.30
2019,11,24,04,35,6.30
2019,11,24,04,36,6.30
2019,11,24,04,37,6.20
2019,11,24,04,38,6.20
2019,11,24,04,39,6.20
2019,11,24,04,40,6.30
2019,11,24,04,41,6.30
2019,11,24,04,42,6.30
2019,11,24,04,43,6.40
2019,11,24,04,44,6.40
2019,11,24,04,45,6.50
2019,11,24,04,46,6.60
2019,11,24,04,47,6.60
2019,11,24,04,48,6.70
2019,11,24,04,49,6.70
2019,11,24,04,50,6.70
2019,11,24,04,51,6.70
2019,11,24,04,52,6.70
2019,11,24,04,53,6.80
2019,11,24,04,54,6.80
2019,11,24,04,55,6.80
2019,11,24,04,56,6.90
2019,11,24,04,57,6.90
2019,11,24,04,58,6.90
2019,11,24,04,59,6.90
2019,11,24,05,00,6.90
2019,11,24,05,01,7.00
2019,11,24,05,02,6.90
2019,11,24,05,03,6.90
2019,11,24,05,04,6.90
2019,11,24,05,05,6.90
2019,11,24,05,06,6.90
2019,11,24,05,07,7.00
2019,11,24,05,08,7.00
2019,11,24,05,09,7.10
2019,11,24,05,10,7.10
2019,11,24,05,11,7.20
2019,11,24,05,12,7.20
2019,11,24,05,13,7.20
2019,11,24,05,14,7.20
2019,11,24,05,15,7.20
2019,11,24,05,16,7.20
2019,11,24,05,17,7.20
2019,11,24,05,18,7.20
2019,11,24,05,19,7.20
2019,11,24,05,20,7.30
2019,11,24,05,21,7.20
2019,11,24,05,22,7.20
2019,11,24,05,23,7.20
2019,11,24,05,24,7.20
2019,11,24,05,25,7.20
2019,11,24,05,26,7.20
2019,11,24,05,27,7.20
2019,11,24,05,28,7.20
2019,11,24,05,29,7.20
2019,11,24,05,30,7.20
2019,11,24,05,31,7.20
2019,11,24,08,03,4.30
2019,11,24,08,04,4.30
2019,11,24,08,05,4.30
2019,11,24,08,06,4.30
2019,11,24,08,07,4.30
2019,11,24,08,08,4.30
2019,11,24,08,09,4.30
2019,11,24,08,10,4.40
2019,11,24,08,11,4.40
2019,11,24,08,12,4.40
2019,11,24,08,13,4.40
2019,11,24,08,14,4.40
2019,11,24,08,15,4.40
2019,11,24,08,16,4.40
2019,11,24,08,17,4.50
2019,11,24,08,18,4.60
2019,11,24,08,19,4.60
2019,11,24,08,20,4.50
2019,11,24,08,21,4.40
2019,11,24,08,22,4.40
2019,11,24,08,23,4.30
2019,11,24,08,24,4.30
2019,11,24,08,25,4.30
2019,11,24,08,26,4.30
2019,11,24,08,27,4.30
2019,11,24,08,28,4.30
2019,11,24,08,29,4.40
2019,11,24,08,30,4.50
2019,11,24,08,31,4.60
2019,11,24,08,32,4.60
2019,11,24,08,33,4.60
2019,11,24,08,34,4.60
2019,11,24,08,35,4.60
2019,11,24,08,36,4.70
2019,11,24,08,37,4.70
2019,11,24,08,38,4.80
2019,11,24,08,39,4.80
2019,11,24,08,40,4.80
2019,11,24,08,41,4.80
2019,11,24,08,42,4.90
2019,11,24,08,43,5.00
2019,11,24,08,44,5.20
2019,11,24,08,45,5.30
2019,11,24,08,46,5.40
2019,11,24,08,47,5.50
2019,11,24,08,48,5.50
2019,11,24,08,49,5.70
2019,11,24,08,50,5.70
2019,11,24,08,51,5.80
2019,11,24,08,52,5.80
2019,11,24,08,53,5.80
2019,11,24,08,54,5.70
2019,11,24,08,55,5.60
2019,11,24,08,56,5.60
2019,11,24,08,57,5.60
2019,11,24,08,58,5.60
2019,11,24,08,59,5.60
2019,11,24,09,00,5.60
2019,11,24,09,01,5.60
2019,11,24,09,02,5.60
2019,11,24,09,03,5.60
2019,11,24,09,04,5.60
2019,11,24,09,05,5.60
2019,11,24,09,06,5.60
2019,11,24,09,07,5.70
2019,11,24,09,08,5.70
2019,11,24,09,09,5.80
2019,11,24,09,10,5.90
2019,11,24,09,11,6.00
2019,11,24,09,12,6.00
2019,11,24,09,13,6.10
2019,11,24,09,14,6.10
2019,11,24,09,15,6.20
2019,11,24,09,16,6.30
2019,11,24,09,17,6.30
2019,11,24,09,18,6.40
2019,11,24,09,19,6.50
2019,11,24,09,20,6.60
2019,11,24,09,21,6.60
2019,11,24,09,22,6.70
2019,11,24,09,23,6.70
2019,11,24,09,24,6.80
2019,11,24,09,25,6.80
2019,11,24,09,26,6.90
2019,11,24,09,27,7.00
2019,11,24,09,28,7.00
2019,11,24,09,29,7.10
2019,11,24,09,30,7.20
2019,11,24,09,31,7.30
2019,11,24,09,32,7.50
2019,11,24,09,33,7.60
2019,11,24,09,34,7.70
2019,11,24,09,35,7.80
2019,11,24,09,36,7.90
2019,11,24,09,37,8.10
2019,11,24,09,38,8.20
2019,11,24,09,39,8.40
2019,11,24,09,40,8.50
2019,11,24,09,41,8.60
2019,11,24,09,42,8.50
2019,11,24,09,43,8.40
2019,11,24,09,44,8.40
2019,11,24,09,45,8.40
2019,11,24,09,46,8.40
2019,11,24,09,47,8.40
2019,11,24,09,48,8.50
2019,11,24,09,49,8.50
2019,11,24,09,50,8.60
2019,11,24,09,51,8.60
2019,11,24,09,52,8.60
2019,11,24,09,53,8.60
2019,11,24,09,54,8.60
2019,11,24,09,55,8.70
2019,11,24,09,56,8.70
2019,11,24,09,57,8.70
2019,11,24,09,58,8.70
2019,11,24,09,59,8.70
2019,11,24,10,00,8.70
2019,11,24,10,01,8.80
2019,11,24,10,02,8.80
2019,11,24,10,03,8.80
2019,11,24,10,04,8.80
2019,11,24,10,05,8.90
2019,11,24,10,06,9.00
2019,11,24,10,07,9.10
2019,11,24,10,08,9.10
2019,11,24,10,09,9.20
2019,11,24,10,10,9.20
2019,11,24,10,11,9.20
2019,11,24,10,12,9.20
2019,11,24,10,13,9.20
2019,11,24,10,14,9.20
2019,11,24,10,15,9.30
2019,11,24,10,16,9.30
2019,11,24,10,17,9.30
2019,11,24,10,18,9.30
2019,11,24,10,19,9.30
2019,11,24,10,20,9.30
2019,11,24,10,21,9.40
2019,11,24,10,22,9.40
2019,11,24,10,23,9.40
2019,11,24,10,24,9.40
2019,11,24,10,25,9.50
2019,11,24,10,26,9.50
2019,11,24,10,27,9.50
2019,11,24,10,28,9.60
2019,11,24,10,29,9.70
2019,11,24,10,30,9.70
2019,11,24,10,31,9.70
2019,11,24,10,32,9.80
2019,11,24,10,33,9.90
2019,11,24,10,34,10.00
2019,11,24,10,35,10.10
2019,11,24,10,36,10.10
2019,11,24,10,37,10.10
2019,11,24,10,38,10.10
2019,11,24,10,39,10.20
2019,11,24,10,40,10.30
2019,11,24,10,41,10.30
2019,11,24,10,42,10.30
2019,11,24,10,43,10.30
2019,11,24,10,44,10.40
2019,11,24,10,45,10.40
2019,11,24,10,46,10.50
2019,11,24,10,47,10.40
2019,11,24,10,48,10.40
2019,11,24,10,49,10.40
2019,11,24,10,50,10.40
2019,11,24,10,51,10.40
2019,11,24,10,52,10.40
2019,11,24,10,53,10.40
2019,11,24,10,54,10.30
2019,11,24,10,55,10.30
2019,11,24,10,56,10.30
2019,11,24,10,57,10.40
2019,11,24,10,58,10.40
2019,11,24,10,59,10.40
2019,11,24,11,00,10.40
2019,11,24,11,01,10.40
2019,11,24,11,02,10.30
2019,11,24,11,03,10.30
2019,11,24,11,04,10.30
2019,11,24,11,05,10.30
2019,11,24,11,06,10.30
2019,11,24,11,07,10.30
2019,11,24,11,08,10.30
2019,11,24,11,09,10.30
2019,11,24,11,10,10.30
2019,11,24,11,11,10.40
2019,11,24,11,12,10.40
2019,11,24,11,13,10.40
2019,11,24,11,14,10.40
2019,11,24,11,15,10.40
2019,11,24,11,16,10.40
2019,11,24,11,17,10.40
2019,11,24,11,18,10.40
2019,11,24,11,19,10.40
2019,11,24,11,20,10.40
2019,11,24,11,21,10.40
2019,11,24,11,22,10.40
2019,11,24,11,23,10.50
2019,11,24,11,24,10.50
2019,11,24,11,25,10.50
2019,11,24,11,26,10.50
2019,11,24,11,27,10.40
2019,11,24,11,28,10.40
2019,11,24,11,29,10.40
2019,11,24,11,30,10.40
2019,11,24,11,31,10.50
2019,11,24,11,32,10.50
2019,11,24,11,33,10.60
2019,11,24,11,34,10.60
2019,11,24,11,35,10.70
2019,11,24,11,36,10.70
2019,11,24,11,37,10.70
2019,11,24,11,38,10.70
2019,11,24,11,39,10.80
2019,11,24,11,40,10.80
2019,11,24,11,41,10.80
2019,11,24,11,42,10.80
2019,11,24,11,43,10.90
2019,11,24,11,44,11.00
2019,11,24,11,45,11.10
2019,11,24,11,46,11.10
2019,11,24,11,47,11.10
2019,11,24,11,48,11.10
2019,11,24,11,49,11.00
2019,11,24,11,50,11.00
2019,11,24,11,51,11.00
2019,11,24,11,52,10.90
2019,11,24,11,53,11.00
2019,11,24,11,54,11.00
2019,11,24,11,55,11.10
2019,11,24,11,56,11.10
2019,11,24,11,57,11.10
2019,11,24,11,58,11.10
2019,11,24,11,59,11.10
2019,11,24,12,00,11.10
2019,11,24,12,01,11.20
2019,11,24,12,02,11.20
2019,11,24,12,03,11.30
2019,11,24,12,04,11.30
2019,11,24,12,05,11.40
2019,11,24,12,06,11.40
2019,11,24,12,07,11.30
2019,11,24,12,08,11.30
2019,11,24,12,09,11.30
2019,11,24,12,10,11.30
2019,11,24,12,11,11.30
2019,11,24,12,12,11.30
2019,11,24,12,13,11.30
2019,11,24,12,14,11.30
2019,11,24,12,15,11.30
2019,11,24,12,16,11.30
2019,11,24,12,17,11.30
2019,11,24,12,18,11.30
2019,11,24,12,19,11.30
2019,11,24,12,20,11.30
2019,11,24,12,21,11.30
2019,11,24,12,22,11.30
2019,11,24,12,23,11.20
2019,11,24,12,24,11.20
2019,11,24,12,25,11.30
2019,11,24,12,26,11.30
2019,11,24,12,27,11.30
2019,11,24,12,28,11.20
2019,11,24,12,29,11.20
2019,11,24,12,30,11.20
2019,11,24,12,31,11.20
2019,11,24,12,32,11.20
2019,11,24,12,33,11.30
2019,11,24,12,34,11.30
2019,11,24,12,35,11.30
2019,11,24,12,36,11.20
2019,11,24,12,37,11.20
2019,11,24,12,38,11.30
2019,11,24,12,39,11.30
2019,11,24,12,40,11.30
2019,11,24,12,41,11.30
2019,11,24,12,42,11.30
2019,11,24,12,43,11.30
2019,11,24,12,44,11.30
2019,11,24,12,45,11.30
2019,11,24,12,46,11.30
2019,11,24,12,47,11.30
2019,11,24,12,48,11.20
2019,11,24,12,49,11.20
2019,11,24,12,50,11.20
2019,11,24,12,51,11.10
2019,11,24,12,52,11.10
2019,11,24,12,53,11.10
2019,11,24,12,54,11.10
2019,11,24,12,55,11.10
2019,11,24,12,56,11.10
2019,11,24,12,57,11.10
2019,11,24,12,58,11.10
2019,11,24,12,59,11.10
2019,11,24,13,00,11.10
2019,11,24,13,01,11.20
2019,11,24,13,02,11.20
2019,11,24,13,03,11.20
2019,11,24,13,04,11.20
2019,11,24,13,05,11.30
2019,11,24,13,06,11.30
2019,11,24,13,07,11.40
2019,11,24,13,08,11.40
2019,11,24,13,09,11.40
2019,11,24,13,10,11.40
2019,11,24,13,11,11.30
2019,11,24,13,12,11.30
2019,11,24,13,13,11.40
2019,11,24,13,14,11.40
2019,11,24,13,15,11.30
2019,11,24,13,16,11.40
2019,11,24,13,17,11.40
2019,11,24,13,18,11.50
2019,11,24,13,19,11.50
2019,11,24,13,20,11.60
2019,11,24,13,21,11.60
2019,11,24,13,22,11.60
2019,11,24,13,23,11.70
2019,11,24,13,24,11.60
2019,11,24,13,25,11.60
2019,11,24,13,26,11.60
2019,11,24,13,27,11.60
2019,11,24,13,28,11.60
2019,11,24,13,29,11.60
2019,11,24,13,30,11.60
2019,11,24,13,31,11.60
2019,11,24,13,32,11.60
2019,11,24,13,33,11.60
2019,11,24,13,34,11.60
2019,11,24,13,35,11.60
2019,11,24,13,36,11.60
2019,11,24,13,37,11.60
2019,11,24,13,38,11.60
2019,11,24,13,39,11.50
2019,11,24,13,40,11.40
2019,11,24,13,41,11.40
2019,11,24,13,42,11.30
2019,11,24,13,43,11.30
2019,11,24,13,44,11.30
2019,11,24,13,45,11.30
2019,11,24,13,46,11.20
2019,11,24,13,47,11.20
2019,11,24,13,48,11.20
2019,11,24,13,49,11.20
2019,11,24,13,50,11.20
2019,11,24,13,51,11.20
2019,11,24,13,52,11.10
2019,11,24,13,53,11.10
2019,11,24,13,54,11.20
2019,11,24,13,55,11.20
2019,11,24,13,56,11.20
2019,11,24,13,57,11.10
2019,11,24,13,58,11.10
2019,11,24,13,59,11.10
2019,11,24,14,00,11.00
2019,11,24,14,01,11.00
2019,11,24,14,02,11.00
2019,11,24,14,03,11.00
2019,11,24,14,04,11.10
2019,11,24,14,05,11.10
2019,11,24,14,06,11.10
2019,11,24,14,07,11.10
2019,11,24,14,08,11.10
2019,11,24,14,09,11.10
2019,11,24,14,10,11.10
2019,11,24,14,11,11.10
2019,11,24,14,12,11.20
2019,11,24,14,13,11.20
2019,11,24,14,14,11.20
2019,11,24,14,15,11.20
2019,11,24,14,16,11.10
2019,11,24,14,17,11.10
2019,11,24,14,18,11.10
2019,11,24,14,19,11.00
2019,11,24,14,20,11.00
2019,11,24,14,21,11.00
2019,11,24,14,22,11.00
2019,11,24,14,23,11.00
2019,11,24,14,24,11.00
2019,11,24,14,25,11.00
2019,11,24,14,26,11.00
2019,11,24,14,27,11.00
2019,11,24,14,28,11.00
2019,11,24,14,29,11.00
2019,11,24,14,30,11.00
2019,11,24,14,31,11.00
2019,11,24,14,32,11.00
2019,11,24,14,33,11.00
2019,11,24,14,34,11.00
2019,11,24,14,35,11.00
2019,11,24,14,36,11.00
2019,11,24,14,37,11.00
2019,11,24,14,38,11.00
2019,11,24,14,39,11.00
2019,11,24,14,40,11.00
2019,11,24,14,41,11.00
2019,11,24,14,42,11.00
2019,11,24,14,43,11.00
2019,11,24,14,44,10.90
2019,11,24,14,45,10.90
2019,11,24,14,46,10.90
2019,11,24,14,47,10.90
2019,11,24,14,48,10.90
2019,11,24,14,49,10.90
2019,11,24,14,50,10.90
2019,11,24,14,51,10.90
2019,11,24,14,52,10.90
2019,11,24,14,53,10.90
2019,11,24,14,54,10.90
2019,11,24,14,55,10.90
2019,11,24,14,56,10.90
2019,11,24,14,57,10.90
2019,11,24,14,58,10.90
2019,11,24,14,59,10.90
2019,11,24,15,00,10.80
2019,11,24,15,01,10.80
2019,11,24,15,02,10.80
2019,11,24,15,03,10.80
2019,11,24,15,04,10.80
2019,11,24,15,05,10.80
2019,11,24,15,06,10.70
2019,11,24,15,07,10.70
2019,11,24,15,08,10.70
2019,11,24,15,09,10.70
2019,11,24,15,10,10.60
2019,11,24,15,11,10.60
2019,11,24,15,12,10.60
2019,11,24,15,13,10.60
2019,11,24,15,14,10.60
2019,11,24,15,15,10.60
2019,11,24,15,16,10.60
2019,11,24,15,17,10.60
2019,11,24,15,18,10.60
2019,11,24,15,19,10.70
2019,11,24,15,20,10.60
2019,11,24,15,21,10.60
2019,11,24,15,22,10.60
2019,11,24,15,23,10.50
2019,11,24,15,24,10.40
2019,11,24,15,25,10.40
2019,11,24,15,26,10.30
2019,11,24,15,27,10.30
2019,11,24,15,28,10.20
2019,11,24,15,29,10.10
2019,11,24,15,30,10.10
2019,11,24,15,31,10.00
2019,11,24,15,32,10.00
2019,11,24,15,33,9.90
2019,11,24,15,34,9.90
2019,11,24,15,35,9.80
2019,11,24,15,36,9.80
2019,11,24,15,37,9.80
2019,11,24,15,38,9.70
2019,11,24,15,39,9.70
2019,11,24,15,40,9.70
2019,11,24,15,41,9.60
2019,11,24,15,42,9.60
2019,11,24,15,43,9.60
2019,11,24,15,44,9.50
2019,11,24,15,45,9.50
2019,11,24,15,46,9.50
2019,11,24,15,47,9.40
2019,11,24,15,48,9.40
2019,11,24,15,49,9.40
2019,11,24,15,50,9.40
2019,11,24,15,51,9.30
2019,11,24,15,52,9.30
2019,11,24,15,53,9.30
2019,11,24,15,54,9.20
2019,11,24,15,55,9.20
2019,11,24,15,56,9.20
2019,11,24,15,57,9.20
2019,11,24,15,58,9.20
2019,11,24,15,59,9.20
2019,11,24,16,00,9.10
2019,11,24,16,01,9.10
2019,11,24,16,02,9.10
2019,11,24,16,03,9.10
2019,11,24,16,04,9.10
2019,11,24,16,05,9.00
2019,11,24,16,06,9.00
2019,11,24,16,07,9.00
2019,11,24,16,08,8.90
2019,11,24,16,09,8.90
2019,11,24,16,10,8.90
2019,11,24,16,11,8.90
2019,11,24,16,12,8.90
2019,11,24,16,13,8.90
2019,11,24,16,14,8.80
2019,11,24,16,15,8.80
2019,11,24,16,16,8.80
2019,11,24,16,17,8.80
2019,11,24,16,18,8.80
2019,11,24,16,19,8.80
2019,11,24,16,20,8.80
2019,11,24,16,21,8.80
2019,11,24,16,22,8.80
2019,11,24,16,23,8.80
2019,11,24,16,24,8.80
2019,11,24,16,25,8.80
2019,11,24,16,26,8.70
2019,11,24,16,27,8.70
2019,11,24,16,28,8.70
2019,11,24,16,29,8.70
2019,11,24,16,30,8.70
2019,11,24,16,31,8.70
2019,11,24,16,32,8.70
2019,11,24,16,33,8.60
2019,11,24,16,34,8.60
2019,11,24,16,35,8.60
2019,11,24,16,36,8.60
2019,11,24,16,37,8.60
2019,11,24,16,38,8.60
2019,11,24,16,39,8.50
2019,11,24,16,40,8.50
2019,11,24,16,41,8.50
2019,11,24,16,42,8.50
2019,11,24,16,43,8.40
2019,11,24,16,44,8.40
2019,11,24,16,45,8.40
2019,11,24,16,46,8.40
2019,11,24,16,47,8.40
2019,11,24,16,48,8.40
2019,11,24,16,49,8.40
2019,11,24,16,50,8.40
2019,11,24,16,51,8.40
2019,11,24,16,52,8.40
2019,11,24,16,53,8.40
2019,11,24,16,54,8.40
2019,11,24,16,55,8.40
2019,11,24,16,56,8.40
2019,11,24,16,57,8.40
2019,11,24,16,58,8.30
2019,11,24,16,59,8.30
2019,11,24,17,00,8.30
2019,11,24,17,01,8.30
2019,11,24,17,02,8.30
2019,11,24,17,03,8.30
2019,11,24,17,04,8.20
2019,11,24,17,05,8.20
2019,11,24,17,06,8.20
2019,11,24,17,07,8.20
2019,11,24,17,08,8.20
2019,11,24,17,09,8.20
2019,11,24,17,10,8.20
2019,11,24,17,11,8.20
2019,11,24,17,12,8.20
2019,11,24,17,13,8.20
2019,11,24,17,14,8.20
2019,11,24,17,15,8.20
2019,11,24,17,16,8.20
2019,11,24,17,17,8.20
2019,11,24,17,18,8.20
2019,11,24,17,19,8.30
2019,11,24,17,20,8.30
2019,11,24,17,21,8.30
2019,11,24,17,22,8.30
2019,11,24,17,23,8.30
2019,11,24,17,24,8.30
2019,11,24,17,25,8.30
2019,11,24,17,26,8.30
2019,11,24,17,27,8.30
2019,11,24,17,28,8.30
2019,11,24,17,29,8.30
2019,11,24,17,30,8.30
2019,11,24,17,31,8.30
2019,11,24,17,32,8.30
2019,11,24,17,33,8.30
2019,11,24,17,34,8.30
2019,11,24,17,35,8.40
2019,11,24,17,36,8.40
2019,11,24,17,37,8.40
2019,11,24,17,38,8.40
2019,11,24,17,39,8.40
2019,11,24,17,40,8.40
2019,11,24,17,41,8.40
2019,11,24,17,42,8.40
2019,11,24,17,43,8.40
2019,11,24,17,44,8.40
2019,11,24,17,45,8.40
2019,11,24,17,46,8.40
2019,11,24,17,47,8.40
2019,11,24,17,48,8.40
2019,11,24,17,49,8.40
2019,11,24,17,50,8.40
2019,11,24,17,51,8.40
2019,11,24,17,52,8.40
2019,11,24,17,53,8.40
2019,11,24,17,54,8.30
2019,11,24,17,55,8.30
2019,11,24,17,56,8.40
2019,11,24,17,57,8.40
2019,11,24,17,58,8.40
2019,11,24,17,59,8.40
2019,11,24,18,00,8.40
2019,11,24,18,01,8.40
2019,11,24,18,02,8.40
2019,11,24,18,03,8.40
2019,11,24,18,04,8.40
2019,11,24,18,05,8.40
2019,11,24,18,06,8.40
2019,11,24,18,07,8.40
2019,11,24,18,08,8.40
2019,11,24,18,09,8.40
2019,11,24,18,10,8.40
2019,11,24,18,11,8.40
2019,11,24,18,12,8.40
2019,11,24,18,13,8.40
2019,11,24,18,14,8.40
2019,11,24,18,15,8.40
2019,11,24,18,16,8.40
2019,11,24,18,17,8.40
2019,11,24,18,18,8.40
2019,11,24,18,19,8.40
2019,11,24,18,20,8.30
2019,11,24,18,21,8.30
2019,11,24,18,22,8.30
2019,11,24,18,23,8.30
2019,11,24,18,24,8.30
2019,11,24,18,25,8.30
2019,11,24,18,26,8.30
2019,11,24,18,27,8.30
2019,11,24,18,28,8.20
2019,11,24,18,29,8.20
2019,11,24,18,30,8.20
2019,11,24,18,31,8.20
2019,11,24,18,32,8.20
2019,11,24,18,33,8.20
2019,11,24,18,34,8.20
2019,11,24,18,35,8.20
2019,11,24,18,36,8.20
2019,11,24,18,37,8.20
2019,11,24,18,38,8.20
2019,11,24,18,39,8.20
2019,11,24,18,40,8.20
2019,11,24,18,41,8.20
2019,11,24,18,42,8.20
2019,11,24,18,43,8.20
2019,11,24,18,44,8.20
2019,11,24,18,45,8.20
2019,11,24,18,46,8.20
2019,11,24,18,47,8.20
2019,11,24,18,48,8.20
2019,11,24,18,49,8.20
2019,11,24,18,50,8.20
2019,11,24,18,51,8.20
2019,11,24,18,52,8.20
2019,11,24,18,53,8.20
2019,11,24,18,54,8.10
2019,11,24,18,55,8.10
2019,11,24,18,56,8.20
2019,11,24,18,57,8.20
2019,11,24,18,58,8.20
2019,11,24,18,59,8.20
2019,11,24,19,00,8.20
2019,11,24,19,01,8.20
2019,11,24,19,02,8.20
2019,11,24,19,03,8.20
2019,11,24,19,04,8.20
2019,11,24,19,05,8.20
2019,11,24,19,06,8.20
2019,11,24,19,07,8.20
2019,11,24,19,08,8.20
2019,11,24,19,09,8.20
2019,11,24,19,10,8.20
2019,11,24,19,11,8.20
2019,11,24,19,12,8.20
2019,11,24,19,13,8.20
2019,11,24,19,14,8.20
2019,11,24,19,15,8.30
2019,11,24,19,16,8.30
2019,11,24,19,17,8.30
2019,11,24,19,18,8.30
2019,11,24,19,19,8.30
2019,11,24,19,20,8.30
2019,11,24,19,21,8.30
2019,11,24,19,22,8.30
2019,11,24,19,23,8.30
2019,11,24,19,24,8.30
2019,11,24,19,25,8.40
2019,11,24,19,26,8.40
2019,11,24,19,27,8.40
2019,11,24,19,28,8.50
2019,11,24,19,29,8.50
2019,11,24,19,30,8.50
2019,11,24,19,31,8.60
2019,11,24,19,32,8.60
2019,11,24,19,33,8.60
2019,11,24,19,34,8.60
2019,11,24,19,35,8.60
2019,11,24,19,36,8.60
2019,11,24,19,37,8.50
2019,11,24,19,38,8.50
2019,11,24,19,39,8.40
2019,11,24,19,40,8.40
2019,11,24,19,41,8.30
2019,11,24,19,42,8.30
2019,11,24,19,43,8.30
2019,11,24,19,44,8.20
2019,11,24,19,45,8.20
2019,11,24,19,46,8.20
2019,11,24,19,47,8.10
2019,11,24,19,48,8.10
2019,11,24,19,49,8.10
2019,11,24,19,50,8.10
2019,11,24,19,51,8.10
2019,11,24,19,52,8.00
2019,11,24,19,53,8.00
2019,11,24,19,54,7.90
2019,11,24,19,55,7.90
2019,11,24,19,56,7.90
2019,11,24,19,57,7.90
2019,11,24,19,58,7.90
2019,11,24,19,59,7.80
2019,11,24,20,00,7.80
2019,11,24,20,01,7.80
2019,11,24,20,02,7.80
2019,11,24,20,03,7.80
2019,11,24,20,04,7.80
2019,11,24,20,05,7.70
2019,11,24,20,06,7.70
2019,11,24,20,07,7.70
2019,11,24,20,08,7.70
2019,11,24,20,09,7.60
2019,11,24,20,10,7.60
2019,11,24,20,11,7.60
2019,11,24,20,12,7.50
2019,11,24,20,13,7.40
2019,11,24,20,14,7.40
2019,11,24,20,15,7.30
2019,11,24,20,16,7.30
2019,11,24,20,17,7.30
2019,11,24,20,18,7.20
2019,11,24,20,19,7.20
2019,11,24,20,20,7.20
2019,11,24,20,21,7.20
2019,11,24,20,22,7.20
2019,11,24,20,23,7.10